Regional Weather Roundup
Issued by NWS Bismarck, ND

Home | Current Version | Previous Version | Text Only | Print | Product List | Glossary On
Versions: 1 2 3 4 5 6 7 8 9 10 11 12 13 14 15 16 17 18 19 20 21 22 23 24 25 26 27 28 29 30 31 32 33 34 35 36 37 38 39 40 41 42 43 44 45 46 47 48 49 50
000
ASUS43 KBIS 310202
RWRBIS

NWR BROADCAST TEXT
NATIONAL WEATHER SERVICE BISMARCK ND
900 PM CDT SUN AUG 30 2015

NOTE: "FAIR" INDICATES FEW OR NO CLOUDS BELOW 12,000 FEET WITH NO
SIGNIFICANT WEATHER AND/OR OBSTRUCTIONS TO VISIBILITY.


CITY           SKY/WX    TMP DP  RH WIND       PRES   REMARKS
WILLISTON      PTCLDY    71  48  43 CALM      29.71S
MINOT          CLOUDY    74  55  51 NW8       29.67R
MINOT AFB      CLOUDY    74  56  54 NW6       29.67R
BISMARCK       CLEAR     85  54  34 N13       29.64R
DICKINSON      MOCLDY    74  49  41 N9        29.71F
GARRISON         N/A     71  58  63 NW9       29.68R
HETTINGER ARPT PTCLDY    77  51  40 N8        29.73R
JAMESTOWN      PTCLDY    75  68  78 S9        29.68R
HAZEN          FAIR      73  57  56 CALM      29.68S HAZE
STANLEY        FAIR      66  50  55 CALM      29.74R
$$

CITY           SKY/WX    TMP DP  RH WIND       PRES   REMARKS
GRAND FORKS    MOCLDY    78  69  73 S15       29.65S
GRAND FORKS AF MOCLDY    78  70  75 S15       29.66S
DEVILS LAKE    PTCLDY    79  64  61 S14       29.63S
FARGO          MOCLDY    78  68  71 SE18G24   29.71S
GRAFTON        FAIR      77  72  83 S14G20    29.65S
GWINNER        FAIR      75  68  78 S12       29.73S
LANGDON        FAIR      79  66  65 S14       29.65R
$$

CITY           SKY/WX    TMP DP  RH WIND       PRES   REMARKS
ABERDEEN       PTCLDY    75  68  78 S17       29.72S
MOBRIDGE       PTCLDY    80  61  52 SE13      29.64R
RAPID CITY     LGT RAIN  73  58  59 N15       29.80R
GLASGOW        MOCLDY    73  48  41 NE5       29.68F
SIDNEY         MOCLDY    72  46  40 CALM      29.70R
WOLF POINT     CLOUDY    78  50  37 NW8       29.68F
GLENDIVE       MOCLDY    73  46  38 N7        29.73S
MILES CITY     CLOUDY    75  54  47 SE10      29.69F
BAKER          CLOUDY    74  52  46 E5        29.74F
$$

CITY           SKY/WX    TMP DP  RH WIND       PRES   REMARKS
BILLINGS       MOCLDY    81  47  30 CALM      29.73S
GREAT FALLS    CLOUDY    63  37  38 W18G28    29.79S
$$



USA.gov is the U.S. government's official web portal to all federal, state and local government web resources and services.